Weather History for KIML - December, 2011

Change the Weather History Date:

Sunday, December 18, 2011

  Actual Average Record
Temperature  
Mean Temperature 40 °F 28 °F  
Max Temperature 61 °F 40 °F 69 °F (2013)
Min Temperature 19 °F 15 °F -14 °F (1983)
Degree Days  
Heating Degree Days 25 37  
Month to date heating degree days 677 646  
Cooling Degree Days 0 0  
Month to date cooling degree days 0 0  
Year to date cooling degree days 1096 963  
Moisture  
Dew Point 19 °F    
Average Humidity 52    
Maximum Humidity 84    
Minimum Humidity 19    
Precipitation  
Precipitation 0.00 in 0.00 in 0.55 in (1973)
Sea Level Pressure  
Sea Level Pressure 30.00 in    
Wind  
Wind Speed 5 mph (West)    
Max Wind Speed 12 mph    
Max Gust Speed 14 mph    
Visibility 10 miles    
Events      
T = Trace of Precipitation, MM = Missing Value Source: NWS Daily Summary

Daily Weather History Graph

Daily Weather History Graph

Search for Another Location

Airport or City:

Trip Planner

Search our weather history database for the weather conditions in past years. The results will help you decide how hot, cold, wet, or windy it might be!

Date:

Astronomy

Dec. 18, 2011 Rise Set
Actual Time 7:04 AM MST 4:21 PM MST
Civil Twilight 6:33 AM MST 4:52 PM MST
Nautical Twilight 5:59 AM MST 5:26 PM MST
Astronomical Twilight 5:26 AM MST 5:59 PM MST
Moon 12:06 AM MST (12/18) 11:49 AM MST (12/18)
Length of Visible Light 10h 18m
Length of Day
9h 16m
Last Quarter, 41% of the Moon is Illuminated
Dec 18
Last Quarter
Dec 24
New
Dec 31
First Quarter
Jan 9
Full
Jan 16
Last Quarter

Hourly Weather History & Observations

Time (MST) Temp. Windchill Dew Point Humidity Pressure Visibility Wind Dir Wind Speed Gust Speed Precip Events Conditions
12:53 AM 25.0 °F 20.7 °F 17.1 °F 72% 30.20 in 10.0 mi NW 3.5 mph - N/A   Clear
1:53 AM 21.0 °F - 15.1 °F 78% 30.19 in 10.0 mi Calm Calm - N/A   Clear
2:53 AM 21.9 °F 15.7 °F 14.0 °F 72% 30.16 in 10.0 mi WNW 4.6 mph - N/A   Clear
3:53 AM 21.0 °F 13.4 °F 15.1 °F 78% 30.15 in 10.0 mi WSW 5.8 mph - N/A   Clear
4:53 AM 19.9 °F 12.1 °F 16.0 °F 85% 30.15 in 10.0 mi West 5.8 mph - N/A   Clear
5:53 AM 19.9 °F 12.1 °F 15.1 °F 81% 30.13 in 10.0 mi WSW 5.8 mph - N/A   Clear
6:53 AM 21.2 °F 12.6 °F 15.8 °F 80% 30.03 in 10.0 mi West 6.9 mph - N/A   Clear
7:53 AM 23.0 °F 17.0 °F 18.0 °F 81% 30.12 in 7.0 mi West 4.6 mph - N/A   Clear
8:53 AM 30.0 °F 25.2 °F 21.9 °F 72% 30.09 in 8.0 mi West 4.6 mph - N/A   Clear
9:53 AM 37.0 °F 32.4 °F 24.1 °F 59% 30.07 in 10.0 mi West 5.8 mph - N/A   Clear
10:53 AM 44.6 °F 41.4 °F 26.6 °F 49% 29.96 in 10.0 mi West 5.8 mph - N/A   Clear
11:53 AM 53.1 °F - 21.9 °F 30% 29.94 in 10.0 mi WNW 6.9 mph - N/A   Clear
12:53 PM 55.9 °F - 23.0 °F 28% 29.90 in 10.0 mi West 5.8 mph - N/A   Clear
1:53 PM 60.1 °F - 23.0 °F 24% 29.88 in 10.0 mi WSW 3.5 mph - N/A   Clear
2:53 PM 60.1 °F - 18.0 °F 20% 29.88 in 10.0 mi NW 5.8 mph - N/A   Clear
3:53 PM 55.9 °F - 17.1 °F 22% 29.89 in 10.0 mi WNW 3.5 mph - N/A   Clear
4:53 PM 46.9 °F - 21.9 °F 37% 29.91 in 10.0 mi WSW 4.6 mph - N/A   Clear
5:53 PM 39.0 °F 36.8 °F 21.9 °F 50% 29.93 in 10.0 mi West 3.5 mph - N/A   Clear
6:53 PM 37.0 °F 34.5 °F 21.0 °F 52% 29.93 in 10.0 mi West 3.5 mph - N/A   Clear
7:53 PM 34.0 °F 28.0 °F 19.0 °F 54% 29.93 in 10.0 mi WNW 6.9 mph - N/A   Clear
8:53 PM 28.9 °F 21.9 °F 18.0 °F 64% 29.93 in 10.0 mi West 6.9 mph - N/A   Clear
9:53 PM 39.0 °F 32.8 °F 18.0 °F 43% 29.89 in 10.0 mi NW 9.2 mph - N/A   Clear
10:53 PM 30.0 °F 23.2 °F 17.1 °F 59% 29.91 in 10.0 mi West 6.9 mph - N/A   Clear
11:53 PM 30.0 °F 24.1 °F 17.1 °F 59% 29.91 in 10.0 mi West 5.8 mph - N/A   Clear